Location: Banksville Park
(38.5557°N, 75.1182°W)
Time: 15:30:08
(UTC+00:00)

SAR-Lupe-4 - Pass Details

Date: 19 September 2020
Orbit: 481 x 485 km, 98.2° (Epoch: 26 October)

Event Time Altitude Azimuth Distance (km) Brightness Sun altitude
Rises 09:45:59 0° 168° (SSE) 2,537 7.2 -12.5°
Reaches altitude 10° 09:48:03 10° 169° (S) 1,661 6.3 -12.1°
Maximum altitude 09:51:37 80° 257° (WSW) 497 3.5 -11.4°
Drops below altitude 10° 09:55:13 10° 345° (NNW) 1,674 6.2 -10.7°
Sets 09:57:17 0° 346° (NNW) 2,559 7.2 -10.3°
